Weather History for Ypsilanti, MI

Change the Weather History Date:

Friday, June 28, 2013

  Actual Average Record
Temperature  
Mean Temperature 73 °F -  
Max Temperature 81 °F 83 °F 105 °F (2012)
Min Temperature 66 °F 60 °F 50 °F (1992)
Cooling Degree Days 8    
Growing Degree Days 23 (Base 50)    
Moisture  
Dew Point 63 °F    
Average Humidity 76    
Maximum Humidity 88    
Minimum Humidity 54    
Precipitation  
Precipitation 0.23 in - - ()
Sea Level Pressure  
Sea Level Pressure 29.59 in    
Wind  
Wind Speed 5 mph (NW)    
Max Wind Speed 16 mph    
Max Gust Speed 44 mph    
Visibility 10 miles    
Events Rain    
Averages and records for this station are not official NWS values.
T = Trace of Precipitation, MM = Missing Value Source: NWS Daily Summary

Daily Weather History Graph

Daily Weather History Graph

Search for Another Location

Airport:

Trip Planner

Search our weather history database for the weather conditions in past years. The results will help you decide how hot, cold, wet, or windy it might be!

Date:

Astronomy

Jun. 28, 2013 Rise Set
Actual Time 6:00 AM EDT 9:14 PM EDT
Civil Twilight 5:25 AM EDT 9:49 PM EDT
Nautical Twilight 4:40 AM EDT 10:33 PM EDT
Astronomical Twilight 3:46 AM EDT 11:27 PM EDT
Moon 12:04 AM EDT (6/28) 12:13 PM EDT (6/28)
Length of Visible Light 16h 23m
Length of Day
15h 14m
Waning Gibbous, 66% of the Moon is Illuminated
Jun 28
Waning Gibbous
Jun 30
Last Quarter
Jul 8
New
Jul 15
First Quarter
Jul 22
Full

Hourly Weather History & Observations

Time (EDT) Temp. Heat Index Dew Point Humidity Pressure Visibility Wind Dir Wind Speed Gust Speed Precip Events Conditions
12:53 AM 69.1 °F - 64.0 °F 84% 29.61 in 10.0 mi Calm Calm - N/A   Clear
1:53 AM 68.0 °F - 64.0 °F 87% 29.63 in 10.0 mi NE 10.4 mph - N/A   Clear
2:20 AM 69.8 °F - 64.4 °F 83% 29.66 in 10.0 mi NE 3.5 mph - N/A   Mostly Cloudy
2:22 AM 69.8 °F - 64.4 °F 83% 29.66 in 10.0 mi NNE 4.6 mph - N/A   Mostly Cloudy
2:37 AM 69.8 °F - 64.4 °F 83% 29.66 in 10.0 mi NNE 3.5 mph - N/A   Overcast
2:53 AM 69.1 °F - 64.0 °F 84% 29.63 in 10.0 mi Calm Calm - N/A   Mostly Cloudy
3:01 AM 68.0 °F - 64.4 °F 88% 29.66 in 10.0 mi Calm Calm - N/A   Mostly Cloudy
3:53 AM 66.9 °F - 63.0 °F 87% 29.62 in 9.0 mi Calm Calm - N/A   Partly Cloudy
4:53 AM 66.9 °F - 63.0 °F 87% 29.61 in 10.0 mi NW 4.6 mph - N/A   Mostly Cloudy
5:53 AM 66.0 °F - 62.1 °F 87% 29.60 in 10.0 mi WNW 4.6 mph - N/A   Scattered Clouds
6:53 AM 68.0 °F - 63.0 °F 84% 29.60 in 10.0 mi WNW 4.6 mph - N/A   Clear
7:39 AM 69.8 °F - 62.6 °F 78% 29.62 in 10.0 mi NW 9.2 mph - N/A   Scattered Clouds
7:49 AM 68.0 °F - 62.6 °F 83% 29.62 in 10.0 mi NW 8.1 mph - N/A   Mostly Cloudy
7:53 AM 68.0 °F - 63.0 °F 84% 29.60 in 10.0 mi NW 6.9 mph - N/A   Mostly Cloudy
8:20 AM 69.8 °F - 62.6 °F 78% 29.62 in 10.0 mi NW 3.5 mph - N/A   Overcast
8:45 AM 69.8 °F - 64.4 °F 83% 29.61 in 10.0 mi NW 8.1 mph - N/A   Mostly Cloudy
8:53 AM 70.0 °F - 64.0 °F 81% 29.59 in 10.0 mi NW 6.9 mph - N/A   Mostly Cloudy
9:17 AM 71.6 °F - 64.4 °F 78% 29.61 in 10.0 mi NW 5.8 mph - N/A   Mostly Cloudy
9:32 AM 71.6 °F - 64.4 °F 78% 29.60 in 10.0 mi West 3.5 mph - N/A   Overcast
9:53 AM 73.0 °F - 64.0 °F 73% 29.58 in 10.0 mi West 6.9 mph - N/A   Overcast
10:53 AM 77.0 °F - 64.0 °F 64% 29.57 in 10.0 mi West 8.1 mph - N/A   Clear
11:53 AM 79.0 °F - 63.0 °F 58% 29.56 in 10.0 mi Variable 6.9 mph - N/A   Scattered Clouds
12:08 PM 78.8 °F - 62.6 °F 57% 29.58 in 10.0 mi WNW 9.2 mph - N/A   Mostly Cloudy
12:22 PM 80.6 °F 81.8 °F 62.6 °F 54% 29.57 in 10.0 mi West 10.4 mph - N/A   Mostly Cloudy
12:53 PM 68.0 °F - 57.9 °F 70% 29.56 in 4.0 mi NW 16.1 mph 43.7 mph 0.11 in Rain Heavy Rain
1:53 PM 68.0 °F - 61.0 °F 78% 29.56 in 10.0 mi WNW 6.9 mph - 0.10 in Rain Light Rain
2:53 PM 73.9 °F - 63.0 °F 68% 29.55 in 10.0 mi NW 8.1 mph - 0.01 in   Clear
3:53 PM 79.0 °F - 64.9 °F 62% 29.52 in 10.0 mi NNW 8.1 mph - N/A   Clear
4:53 PM 79.0 °F - 62.1 °F 56% 29.52 in 10.0 mi NW 9.2 mph - N/A   Clear
5:53 PM 71.1 °F - 62.1 °F 73% 29.54 in 10.0 mi North 4.6 mph - 0.01 in Rain Light Rain
6:53 PM 70.0 °F - 62.1 °F 76% 29.57 in 10.0 mi WSW 5.8 mph - 0.00 in   Overcast
7:53 PM 71.1 °F - 61.0 °F 70% 29.57 in 10.0 mi West 12.7 mph - N/A   Partly Cloudy
8:53 PM 70.0 °F - 60.1 °F 71% 29.56 in 10.0 mi WNW 8.1 mph - N/A   Scattered Clouds
9:53 PM 68.0 °F - 61.0 °F 78% 29.57 in 10.0 mi WNW 5.8 mph - N/A   Partly Cloudy
10:53 PM 66.9 °F - 61.0 °F 81% 29.56 in 10.0 mi Calm Calm - N/A   Clear
11:53 PM 66.0 °F - 61.0 °F 84% 29.56 in 10.0 mi Calm Calm - N/A   Clear